This demonstration page uses our WeatherBlox Daily Observations layout. Learn more.

Left ArrowRight Arrow

44.8408, -93.29828

Hourly Observations for September 14, 2018

Temp ( °F °C ) Dew Point ( °F °C ) Humidity (%) Winds ( mph kmh ) Pressure ( in mb ) Visibility ( mi km ) Precip ( " mm )
12:53 am 00:53 Clear 73 22.8 66 18.9 79 79 S 8 13 29.98 1015 10 16 0.00 0.00
1:53 am 01:53 Mostly Clear 70 21.1 66 18.9 87 87 SE 7 11 29.98 1015 10 16 0.00 0.00
2:53 am 02:53 Partly Cloudy 69 20.6 66 18.9 90 90 SE 7 11 29.99 1016 10 16 0.00 0.00
3:53 am 03:53 Cloudy 70 21.1 66 18.9 87 87 SE 6 9 30.00 1016 10 16 0.00 0.00
4:53 am 04:53 Mostly Cloudy 70 21.1 66 18.9 87 87 SE 7 11 30.01 1016 10 16 0.00 0.00
5:53 am 05:53 Mostly Cloudy 70 21.1 67 19.4 90 90 SE 8 13 30.01 1016 10 16 0.00 0.00
6:53 am 06:53 Cloudy 70 21.1 67 19.4 90 90 SSE 7 11 30.02 1017 10 16 0.00 0.00
7:53 am 07:53 Mostly Cloudy 71 21.7 68 20 90 90 SE 7 11 30.03 1017 10 16 0.00 0.00
8:53 am 08:53 Mostly Cloudy 72 22.2 68 20 87 87 VRB 5 7 30.04 1017 10 16 0.00 0.00
9:53 am 09:53 Mostly Cloudy 74 23.3 69 20.6 85 85 SSE 6 9 30.04 1017 10 16 0.00 0.00
10:53 am 10:53 Mostly Cloudy 77 25 70 21.1 79 79 S 7 11 30.05 1018 10 16 0.00 0.00
11:53 am 11:53 Partly Cloudy 80 26.7 70 21.1 71 71 SSE 6 9 30.04 1017 10 16 0.00 0.00
12:53 pm 12:53 Mostly Cloudy 81 27.2 71 21.7 72 72 VRB 7 11 30.03 1017 10 16 0.00 0.00
1:29 pm 13:29 Mostly Cloudy 83 28.3 71 21.7 67 67 SSW 8 13 29.97 1015 10 16 0.00 0.00
1:53 pm 13:53 Mostly Cloudy 84 28.9 70 21.1 63 63 S 7 11 30.02 1017 10 16 0.00 0.00
2:53 pm 14:53 Partly Cloudy 86 30 69 20.6 57 57 SSW 8 13 30.01 1016 10 16 0.00 0.00
3:53 pm 15:53 Mostly Cloudy 87 30.6 69 20.6 55 55 S 10 17 30.01 1016 10 16 0.00 0.00
4:53 pm 16:53 Mostly Cloudy 86 30 70 21.1 59 59 S 8 13 30.01 1016 10 16 0.00 0.00
5:53 pm 17:53 Mostly Cloudy 85 29.4 70 21.1 61 61 SSE 9 15 30.02 1017 10 16 0.00 0.00
6:53 pm 18:53 Partly Cloudy 84 28.9 71 21.7 65 65 SSE 6 9 30.01 1016 10 16 0.00 0.00
7:53 pm 19:53 Mostly Cloudy 82 27.8 70 21.1 67 67 SSE 8 13 30.01 1016 10 16 0.00 0.00
8:53 pm 20:53 Partly Cloudy 79 26.1 69 20.6 72 72 SSE 8 13 30.02 1017 10 16 0.00 0.00
9:53 pm 21:53 Partly Cloudy 78 25.6 68 20 71 71 SSE 8 13 30.03 1017 10 16 0.00 0.00
10:53 pm 22:53 Partly Cloudy 77 25 68 20 74 74 SE 8 13 30.03 1017 10 16 0.00 0.00
11:53 pm 23:53 Mostly Cloudy 76 24.4 68 20 77 77 SSE 8 13 30.03 1017 10 16 0.00 0.00

Powered by AerisWeather